ISS (NAUKA)

Last updated on Mon Sep 14 2026 00:02:05 GMT+0000 (Coordinated Universal Time)

1 49044U 21066A 26256.36908747 .00004787 00000+0 94684-4 0 9991 2 49044 51.6306 223.6594 0004901 135.5950 224.5433 15.49098779586143
UTC large
Height (km)
Speed (km/s)
/
Latitude / Longitude
Inclination (degrees)
Orbital Period (minutes)
Azimuth
Elevation
Range (km)
Doppler Factor

Next 0 passes for location: London (51.5072 / 0.1276)

No passes found over London.
ISS (NAUKA)